User: anonymous
Location: *
(90.0000°N, 180.0000°W)
Time: 04:21:31
(UTC+02:00)
Language:

Cosmos 1825 - Orbit

View from above orbital plane
View from above orbital plane
View from above satellite
View from above satellite

Ground track
Ground track

The orbit data is extracted from the following two-line orbital elements,

1 17566U 87024A   14274.15620038  .00006729  00000-0  37934-3 0  1130
2 17566 082.5080 188.8335 0006666 062.7597 056.4669 15.13011074503777
Epoch (UTC): 01 October 2014 03:44:55
Eccentricity: 0.0006666
inclination: 82.5080°
perigee height: 522 km
apogee height: 531 km
right ascension of ascending node: 188.8335°
argument of perigee: 62.7597°
revolutions per day: 15.13011074
mean anomaly at epoch: 56.4669°
orbit number at epoch: 50377

The dashed part of the orbit path shows where the satellite is in the earth's shadow,  

DLR